Wind_Speed
37 37 38 37 35 34 34 35 37 37 38 39 40 41 41 42 43 44 44 43 43 44 47 51 54 55 57 57 56 56 55 54 54 54 54 54 55 55 55 56 56 56 56 55
39 39 40 41 41 41 40 40 40 42 44 45 46 46 45 45 46 46 46 46 48 52 54 56 56 57 57 57 57 56 55 55 54 53 52 52 53 53 54 53 53 54 54 55
39 39 40 43 44 45 46 45 46 46 47 48 48 48 47 46 47 48 50 52 55 56 56 56 57 56 56 56 55 55 54 53 51 50 49 50 50 51 51 51 52 53 54 55
38 37 36 39 43 45 47 49 50 51 51 50 49 48 48 49 50 52 53 54 54 54 55 54 54 54 54 53 53 52 50 48 47 46 46 47 47 48 49 51 52 53 53 53
33 33 31 31 34 38 41 44 46 49 51 51 51 51 50 50 51 51 51 52 52 52 52 52 51 51 50 49 48 46 44 43 42 43 44 45 47 48 49 50 50 50 49 48
31 30 30 30 30 32 34 37 39 41 43 45 45 46 46 46 47 47 48 49 49 49 49 48 47 45 44 43 41 40 39 39 40 41 42 44 45 46 47 47 46 45 44 43
26 27 27 28 28 28 31 34 35 37 39 40 41 42 43 44 44 45 45 45 45 44 43 42 41 40 39 37 37 37 37 37 39 40 42 43 43 43 42 42 42 42 41 40
21 21 22 23 24 27 29 30 32 34 35 37 38 39 40 41 42 42 41 41 40 39 38 37 36 35 34 34 34 34 35 36 37 38 39 39 40 40 40 40 39 39 37 36
18 19 20 21 21 22 24 26 28 31 32 33 35 36 36 36 36 36 35 35 34 33 32 32 31 30 31 31 32 32 33 34 35 36 38 38 38 38 37 36 35 33 32 30
17 18 19 20 21 21 22 23 24 26 28 29 30 30 31 31 30 29 28 28 27 27 26 26 26 27 27 28 29 31 33 34 35 36 37 37 36 35 33 31 29 27 26 24
18 18 19 20 21 21 21 22 23 24 25 25 25 25 25 24 23 23 22 22 22 22 23 23 24 25 26 27 29 31 32 33 34 34 34 33 31 30 28 26 23 22 20 19
18 18 18 18 19 19 20 20 21 21 20 21 20 20 19 19 18 18 18 18 19 20 20 21 22 24 26 28 30 31 32 32 32 31 30 29 27 24 22 20 19 17 16 15
16 17 17 17 17 17 17 17 17 17 17 16 16 15 14 14 14 14 15 16 16 17 18 20 22 24 27 28 30 31 31 31 30 28 26 24 21 19 17 16 15 14 13 11
14 14 15 15 15 15 14 13 13 13 12 12 11 11 10 10 11 11 12 12 14 16 18 20 23 25 27 29 30 30 30 29 27 25 22 19 16 15 13 11 10 10 9 7
11 11 11 11 11 10 10 9 9 8 8 8 7 7 7 8 8 8 10 12 14 16 19 21 24 26 28 29 29 29 27 25 23 20 17 14 12 10 9 8 7 6 6 4
8 8 8 8 7 7 6 6 6 5 5 4 4 4 4 5 6 7 10 12 14 17 20 23 25 27 28 29 28 27 24 22 19 15 12 10 9 8 7 7 6 5 5 5
6 6 6 5 4 4 3 3 3 3 2 1 1 1 2 3 6 8 10 13 16 19 22 24 26 28 28 27 26 24 21 18 15 12 10 8 8 8 7 8 8 8 8 9
5 4 3 3 2 1 1 1 1 1 0 1 2 2 3 5 7 9 12 14 17 20 23 26 27 27 27 26 25 22 19 16 13 11 10 9 9 9 9 10 10 11 11 11
3 2 1 2 2 2 1 1 1 1 2 3 4 4 5 6 8 11 13 16 19 22 25 26 27 27 27 26 25 22 19 15 13 12 11 11 11 10 10 11 12 13 13 13
1 0 1 2 2 2 3 2 2 3 4 4 5 5 7 8 10 12 14 17 21 23 25 27 28 28 27 26 24 22 19 16 15 14 13 13 12 12 12 13 14 14 15 15
3 1 1 2 2 3 3 2 3 4 5 5 6 7 8 9 10 12 15 19 22 24 26 28 29 29 28 27 25 22 20 18 18 17 16 15 15 15 15 16 16 16 16 16
3 3 2 2 2 2 3 3 4 6 6 7 8 8 9 10 11 13 16 20 22 24 27 29 30 31 30 28 26 25 23 21 21 20 19 19 19 19 18 18 18 17 17 16
5 4 3 3 3 3 4 5 6 7 8 9 9 9 9 10 11 14 17 20 22 25 27 29 30 31 31 30 29 27 26 25 24 23 23 23 22 22 21 20 20 19 18 17
5 4 4 4 4 4 5 6 7 9 9 9 10 10 10 10 11 14 16 19 22 24 26 28 30 31 32 32 31 30 28 27 26 26 25 25 24 23 22 21 21 20 19 18
6 5 4 4 4 5 6 7 8 9 10 10 10 10 10 10 11 13 16 18 21 23 25 27 30 32 32 32 32 31 29 28 28 27 26 26 25 24 23 22 21 21 20 19
7 6 5 5 5 6 7 8 9 10 11 11 11 11 10 10 11 13 15 17 19 21 24 26 29 31 32 33 32 32 31 30 29 29 28 28 27 26 25 24 23 22 22 21
8 7 6 6 6 6 8 9 11 12 12 12 12 12 11 10 11 12 13 15 17 19 22 25 28 30 31 32 32 32 32 32 31 31 30 30 29 29 28 28 27 26 24 23
Wind_Direction
234 230 231 233 234 236 236 235 237 241 244 248 252 255 258 260 263 265 268 272 277 281 285 288 289 290 290 290 290 291 290 290 289 289 288 287 287 286 287 286 286 288 290 292
243 242 241 242 243 247 248 248 248 249 251 254 256 258 259 262 264 267 271 276 280 285 288 289 289 289 290 290 291 291 291 292 291 289 289 288 287 286 286 287 289 290 292 295
248 249 249 249 248 248 250 252 254 256 258 259 260 261 263 266 271 276 280 283 285 287 288 288 289 289 290 290 291 291 291 291 291 290 289 288 287 287 287 288 290 292 295 296
251 250 250 251 249 247 248 249 251 255 258 261 264 267 271 275 279 281 283 285 286 287 288 288 289 289 290 290 291 291 291 291 289 288 287 287 287 288 289 291 293 294 295 296
250 249 249 248 250 249 249 250 252 255 258 262 266 270 274 277 279 281 283 285 287 288 288 289 289 290 290 291 291 291 291 291 290 289 288 288 289 290 292 294 295 296 297 297
251 253 254 252 251 252 253 253 255 258 261 264 267 271 273 275 278 281 283 285 287 288 288 289 290 291 292 292 293 293 292 292 292 291 290 291 292 293 294 296 297 298 299 298
252 255 257 257 255 253 253 255 257 260 263 266 269 272 275 277 279 282 284 286 287 288 289 290 291 292 294 294 294 294 294 293 293 293 293 295 296 297 298 299 299 300 300 299
251 257 260 260 260 257 257 257 258 261 263 267 270 273 276 279 281 283 285 287 288 290 291 292 293 294 295 295 296 295 296 296 297 298 298 299 299 300 300 300 300 300 299 298
264 265 264 263 264 263 261 261 262 265 266 270 272 275 278 280 283 285 286 288 291 292 293 294 295 296 297 298 299 300 300 301 302 302 303 303 303 303 302 302 301 300 299 299
270 270 270 270 269 269 268 269 270 272 273 276 278 279 280 283 286 288 290 292 294 296 297 298 299 300 302 304 305 306 306 306 306 306 306 306 305 305 304 303 303 302 301 301
275 277 275 274 275 275 274 274 275 276 277 279 281 283 286 287 288 290 293 295 299 301 301 303 305 307 309 310 311 311 310 310 310 309 309 308 308 307 306 305 304 303 303 303
276 277 278 277 276 277 278 277 277 278 279 281 284 285 286 287 290 292 295 300 303 306 309 312 314 316 317 317 317 316 316 315 315 314 312 312 311 310 308 307 306 305 305 306
277 279 280 280 277 277 279 278 279 279 281 283 283 284 285 290 294 297 302 307 311 316 320 322 324 324 324 324 323 322 321 320 318 316 315 314 313 313 313 311 310 311 312 313
280 283 284 283 281 280 278 278 279 279 280 280 281 284 288 295 302 307 313 320 325 329 332 332 332 331 331 330 328 327 325 323 322 320 320 319 320 321 322 321 320 322 324 328
287 290 292 290 285 280 278 278 275 273 275 276 280 287 295 304 313 322 329 336 339 340 340 339 339 338 338 337 335 332 330 328 328 328 328 329 332 335 338 339 340 343 350 6
294 296 294 294 288 278 274 269 265 267 266 267 283 298 311 323 335 343 349 351 350 349 348 347 346 346 345 342 340 338 337 337 336 339 341 346 352 356 1 6 14 28 47 67
300 295 291 289 284 277 268 266 258 255 259 271 301 334 358 1 4 5 4 2 359 357 356 354 353 351 350 348 348 348 348 347 349 356 4 10 19 27 34 41 52 63 72 82
305 296 284 268 265 247 225 224 202 217 202 122 90 70 47 35 28 22 16 11 7 5 2 0 358 357 357 358 359 360 1 3 9 19 29 39 46 53 56 61 68 75 80 87
301 298 270 234 215 187 182 151 113 110 122 106 92 81 68 53 41 31 23 17 14 11 9 7 5 5 5 6 7 9 13 20 28 38 49 55 59 63 66 72 77 81 85 91
252 68 116 143 157 154 147 139 128 116 112 104 99 91 78 61 48 37 29 24 21 18 15 14 13 13 13 15 17 20 27 36 45 53 59 63 66 71 76 80 83 85 88 92
231 202 142 123 142 158 158 147 135 125 117 111 108 99 84 68 55 43 35 31 27 24 22 21 21 21 23 25 28 33 39 49 56 61 64 68 72 77 82 85 85 87 89 92
198 180 169 157 150 157 158 148 142 136 129 122 116 105 91 75 61 49 42 37 33 30 29 28 28 30 32 35 39 44 50 57 61 65 68 72 75 80 84 85 85 87 89 92
185 188 187 178 164 151 148 149 145 139 135 129 123 112 99 83 68 56 49 43 39 36 34 34 35 37 40 43 47 52 56 61 65 68 71 74 77 80 81 82 83 85 87 89
181 183 184 181 168 159 151 149 148 144 142 136 129 119 106 89 74 62 54 49 45 42 41 40 42 44 46 49 52 55 59 63 67 69 72 74 75 76 78 79 80 81 83 84
180 181 182 181 179 170 162 157 151 149 149 144 137 127 113 96 82 70 61 55 51 48 46 46 48 49 50 52 55 57 61 65 67 69 71 72 73 74 75 77 78 79 79 79
182 182 179 175 172 170 166 161 157 154 154 151 144 135 122 106 90 77 68 61 57 53 52 51 52 53 54 55 57 60 63 66 68 69 70 71 72 71 72 73 75 76 76 76
183 183 183 179 175 173 170 167 162 159 159 157 152 143 132 118 100 86 76 68 63 60 57 55 55 56 57 58 60 62 64 67 68 70 70 70 70 71 72 72 73 74 75 74
Height
5750 5753 5755 5756 5756 5756 5757 5757 5760 5762 5763 5764 5765 5765 5765 5765 5764 5764 5763 5761 5759 5757 5755 5752 5749 5745 5742 5738 5734 5730 5726 5722 5717 5713 5708 5704 5699 5694 5690 5685 5681 5676 5671 5666
5742 5745 5747 5748 5749 5749 5749 5749 5751 5754 5756 5757 5757 5757 5757 5756 5755 5753 5752 5750 5748 5746 5743 5740 5736 5733 5729 5724 5720 5715 5711 5707 5702 5698 5693 5689 5685 5680 5675 5671 5666 5662 5657 5653
5733 5736 5737 5739 5740 5740 5742 5743 5745 5747 5749 5748 5748 5748 5746 5745 5744 5743 5741 5739 5737 5734 5731 5727 5723 5719 5715 5710 5706 5701 5697 5692 5688 5684 5679 5675 5671 5666 5662 5658 5653 5649 5644 5639
5723 5726 5728 5728 5728 5730 5733 5734 5737 5738 5739 5739 5739 5738 5736 5735 5733 5732 5730 5728 5725 5721 5718 5714 5710 5706 5702 5697 5692 5688 5683 5679 5675 5670 5666 5662 5658 5653 5649 5645 5640 5636 5631 5626
5713 5715 5717 5718 5718 5721 5723 5725 5727 5728 5728 5728 5728 5728 5727 5725 5723 5721 5719 5716 5713 5709 5706 5702 5698 5694 5689 5684 5680 5675 5671 5666 5662 5658 5654 5650 5646 5642 5637 5633 5628 5623 5618 5613
5704 5706 5708 5711 5711 5712 5715 5715 5717 5717 5718 5718 5718 5718 5717 5715 5713 5710 5708 5705 5701 5698 5694 5690 5686 5682 5677 5672 5668 5664 5660 5655 5651 5647 5643 5639 5634 5629 5625 5620 5615 5610 5605 5601
5696 5698 5700 5702 5703 5705 5708 5708 5708 5708 5708 5708 5708 5708 5706 5704 5702 5700 5697 5694 5691 5687 5683 5679 5675 5671 5666 5662 5658 5654 5649 5645 5641 5636 5632 5627 5623 5618 5613 5608 5603 5599 5594 5590
5691 5692 5696 5695 5696 5698 5698 5699 5699 5699 5699 5699 5699 5698 5696 5695 5692 5690 5687 5683 5680 5676 5673 5669 5665 5661 5657 5653 5648 5644 5640 5635 5631 5626 5621 5616 5611 5607 5602 5597 5592 5587 5583 5579
5686 5688 5688 5688 5689 5689 5690 5691 5691 5691 5691 5691 5690 5689 5688 5686 5683 5680 5677 5674 5671 5667 5663 5660 5656 5652 5648 5644 5640 5635 5631 5626 5621 5616 5611 5606 5601 5596 5591 5586 5582 5578 5573 5570
5680 5681 5681 5682 5682 5683 5683 5683 5683 5683 5683 5682 5681 5680 5679 5677 5674 5672 5669 5666 5663 5659 5656 5652 5649 5645 5641 5637 5632 5627 5622 5617 5612 5607 5601 5596 5591 5586 5581 5577 5573 5569 5566 5562
5674 5675 5675 5675 5676 5676 5676 5676 5676 5676 5675 5674 5673 5672 5670 5669 5667 5665 5663 5660 5657 5654 5650 5647 5643 5639 5635 5630 5625 5620 5614 5609 5603 5597 5592 5587 5582 5577 5573 5569 5566 5563 5560 5557
5669 5670 5670 5670 5670 5670 5670 5669 5669 5669 5668 5667 5666 5665 5664 5663 5661 5660 5658 5655 5652 5649 5646 5642 5638 5633 5628 5623 5618 5612 5606 5600 5595 5589 5584 5579 5575 5570 5566 5563 5560 5558 5555 5553
5664 5664 5664 5664 5664 5663 5663 5663 5663 5663 5662 5662 5661 5661 5660 5659 5657 5656 5654 5651 5648 5645 5642 5637 5633 5628 5623 5617 5611 5605 5599 5593 5587 5582 5577 5573 5568 5565 5562 5559 5556 5554 5552 5549
5660 5659 5659 5658 5658 5658 5658 5658 5658 5658 5658 5658 5657 5657 5656 5656 5654 5653 5651 5648 5645 5642 5638 5634 5629 5623 5618 5611 5605 5598 5592 5586 5581 5575 5571 5567 5564 5561 5558 5556 5554 5551 5549 5548
5656 5656 5655 5654 5654 5654 5654 5654 5654 5655 5655 5655 5655 5655 5654 5654 5652 5651 5649 5646 5643 5640 5635 5631 5625 5619 5613 5606 5599 5593 5586 5580 5575 5571 5567 5563 5561 5558 5556 5554 5552 5550 5549 5547
5653 5653 5652 5652 5652 5651 5652 5652 5652 5652 5653 5653 5653 5653 5653 5652 5651 5650 5647 5645 5642 5638 5633 5628 5622 5615 5609 5602 5595 5588 5582 5576 5571 5568 5564 5562 5559 5557 5555 5554 5552 5550 5549 5548
5651 5651 5650 5650 5650 5650 5650 5650 5651 5651 5652 5652 5653 5653 5652 5652 5651 5649 5647 5644 5640 5636 5631 5625 5619 5613 5606 5599 5592 5585 5579 5574 5569 5566 5563 5561 5559 5557 5556 5554 5553 5552 5551 5550
5650 5649 5649 5649 5649 5650 5650 5650 5651 5651 5652 5652 5652 5653 5652 5652 5651 5649 5647 5644 5640 5635 5630 5624 5617 5611 5604 5597 5590 5583 5577 5573 5569 5566 5564 5562 5560 5559 5558 5556 5555 5555 5554 5554
5648 5648 5648 5648 5649 5649 5650 5650 5651 5651 5652 5653 5653 5653 5653 5653 5651 5650 5647 5644 5640 5635 5630 5623 5617 5610 5602 5595 5589 5582 5577 5573 5570 5567 5565 5564 5562 5561 5560 5559 5559 5558 5558 5558
5648 5648 5648 5648 5648 5649 5650 5651 5652 5652 5653 5654 5654 5654 5654 5654 5653 5651 5649 5645 5641 5636 5630 5624 5617 5610 5603 5596 5589 5583 5579 5575 5572 5570 5568 5567 5566 5565 5564 5563 5563 5563 5562 5562
5648 5648 5648 5648 5649 5650 5651 5651 5652 5653 5654 5655 5655 5656 5656 5656 5655 5653 5650 5647 5643 5638 5632 5626 5619 5612 5604 5598 5592 5586 5582 5578 5576 5574 5572 5571 5570 5569 5568 5568 5568 5568 5568 5568
5647 5648 5648 5649 5650 5650 5651 5652 5653 5654 5655 5656 5657 5657 5658 5658 5657 5655 5652 5649 5645 5640 5635 5629 5622 5615 5608 5602 5596 5591 5587 5584 5581 5579 5578 5576 5575 5574 5574 5574 5573 5573 5573 5573
5646 5647 5648 5649 5650 5651 5651 5653 5654 5655 5656 5658 5659 5659 5660 5660 5659 5658 5655 5652 5648 5644 5639 5633 5627 5620 5614 5608 5603 5598 5594 5591 5588 5586 5585 5583 5582 5581 5581 5580 5580 5579 5579 5579
5646 5647 5648 5649 5650 5651 5652 5653 5655 5656 5658 5659 5660 5661 5662 5662 5661 5660 5658 5656 5652 5648 5644 5639 5633 5627 5621 5615 5610 5606 5602 5599 5597 5594 5593 5591 5590 5589 5588 5587 5586 5586 5585 5585
5645 5647 5648 5649 5650 5651 5652 5654 5655 5657 5659 5660 5662 5663 5664 5664 5664 5663 5661 5659 5657 5653 5650 5645 5640 5634 5629 5624 5619 5615 5611 5608 5605 5603 5601 5599 5598 5597 5595 5594 5593 5592 5592 5591
5645 5646 5648 5649 5650 5651 5653 5654 5656 5658 5660 5662 5663 5665 5666 5667 5666 5666 5665 5663 5661 5659 5655 5651 5647 5642 5637 5632 5628 5624 5621 5617 5615 5612 5610 5608 5606 5605 5603 5602 5600 5599 5598 5597
5644 5646 5647 5648 5650 5651 5653 5654 5656 5659 5661 5663 5665 5666 5668 5669 5669 5669 5668 5667 5666 5664 5661 5657 5653 5649 5645 5642 5638 5634 5630 5627 5625 5622 5620 5618 5616 5614 5612 5610 5608 5607 5606 5604